2023/06/28 00:00:00,161.8,21.1
2023/06/28 00:10:00,162.0,21.2
2023/06/28 00:20:00,162.0,21.2
2023/06/28 00:30:00,162.0,21.3
2023/06/28 00:40:00,162.0,21.2
2023/06/28 00:50:00,162.0,21.3
2023/06/28 01:00:00,162.0,21.1
2023/06/28 01:10:00,162.0,21.0
2023/06/28 01:20:00,162.0,21.1
2023/06/28 01:30:00,162.0,21.2
2023/06/28 01:40:00,162.0,20.8
2023/06/28 01:50:00,162.1,20.9
2023/06/28 02:00:00,162.1,21.2
2023/06/28 02:10:00,162.1,20.5
2023/06/28 02:20:00,162.1,21.2
2023/06/28 02:30:00,162.0,21.0
2023/06/28 02:40:00,162.0,21.0
2023/06/28 02:50:00,---,21.3
2023/06/28 03:00:00,---,20.7
2023/06/28 03:10:00,---,20.4
2023/06/28 03:20:00,---,20.6
2023/06/28 03:30:00,---,20.5
2023/06/28 03:40:00,---,20.5
2023/06/28 03:50:00,---,20.3
2023/06/28 04:00:00,---,20.2
2023/06/28 04:10:00,---,20.1
2023/06/28 04:20:00,---,20.2
2023/06/28 04:30:00,---,20.4
2023/06/28 04:40:00,---,20.8
2023/06/28 04:50:00,---,20.8
2023/06/28 05:00:00,99.0,20.7
2023/06/28 05:10:00,78.6,20.4
2023/06/28 05:20:00,78.6,20.9
2023/06/28 05:30:00,78.6,20.8
2023/06/28 05:40:00,78.6,20.9
2023/06/28 05:50:00,78.6,20.7
2023/06/28 06:00:00,78.6,20.9
2023/06/28 06:10:00,78.6,21.0
2023/06/28 06:20:00,78.6,20.9
2023/06/28 06:30:00,78.6,21.3
2023/06/28 06:40:00,78.6,21.5
2023/06/28 06:50:00,78.6,21.0
2023/06/28 07:00:00,78.6,22.1
2023/06/28 07:10:00,78.6,23.7
2023/06/28 07:20:00,78.6,23.9
2023/06/28 07:30:00,78.6,23.3
2023/06/28 07:40:00,78.6,22.9
2023/06/28 07:50:00,78.6,22.6
2023/06/28 08:00:00,78.6,22.7
2023/06/28 08:10:00,78.6,23.2
2023/06/28 08:20:00,78.6,23.8
2023/06/28 08:30:00,78.6,24.0
2023/06/28 08:40:00,78.6,24.2
2023/06/28 08:50:00,78.6,23.8
2023/06/28 09:00:00,---,23.7
2023/06/28 09:10:00,---,23.4
2023/06/28 09:20:00,162.1,22.2
2023/06/28 09:30:00,161.6,22.5
2023/06/28 09:40:00,160.7,22.1
2023/06/28 09:50:00,161.1,22.2
2023/06/28 10:00:00,161.5,22.9
2023/06/28 10:10:00,161.5,23.6
2023/06/28 10:20:00,161.5,24.3
2023/06/28 10:30:00,161.5,25.8
2023/06/28 10:40:00,161.5,26.1
2023/06/28 10:50:00,161.5,24.7
2023/06/28 11:00:00,161.5,24.3
2023/06/28 11:10:00,162.3,24.0
2023/06/28 11:20:00,162.1,23.3
2023/06/28 11:30:00,162.1,22.7
2023/06/28 11:40:00,162.1,21.5
2023/06/28 11:50:00,162.1,21.2
2023/06/28 12:00:00,162.2,20.3
2023/06/28 12:10:00,162.3,19.8
2023/06/28 12:20:00,162.3,19.5
2023/06/28 12:30:00,162.3,19.8
2023/06/28 12:40:00,162.3,19.7
2023/06/28 12:50:00,162.3,20.2
2023/06/28 13:00:00,162.3,19.9
2023/06/28 13:10:00,162.3,19.8
2023/06/28 13:20:00,162.3,20.0
2023/06/28 13:30:00,162.3,20.1
2023/06/28 13:40:00,162.3,20.6
2023/06/28 13:50:00,162.3,22.7
2023/06/28 14:00:00,162.3,22.8
2023/06/28 14:10:00,162.4,22.0
2023/06/28 14:20:00,162.4,22.8
2023/06/28 14:30:00,162.3,21.8
2023/06/28 14:40:00,162.3,22.2
2023/06/28 14:50:00,162.3,22.5
2023/06/28 15:00:00,162.3,22.4
2023/06/28 15:10:00,162.3,23.5
2023/06/28 15:20:00,162.0,23.3
2023/06/28 15:30:00,161.7,22.3
2023/06/28 15:40:00,161.9,22.7
2023/06/28 15:50:00,161.9,23.4
2023/06/28 16:00:00,162.0,23.2
2023/06/28 16:10:00,162.0,22.4
2023/06/28 16:20:00,162.0,21.6
2023/06/28 16:30:00,162.0,21.6
2023/06/28 16:40:00,162.0,21.8
2023/06/28 16:50:00,162.0,21.9
2023/06/28 17:00:00,162.0,22.1
2023/06/28 17:10:00,162.0,21.7
2023/06/28 17:20:00,162.0,21.9
2023/06/28 17:30:00,162.0,20.8
2023/06/28 17:40:00,162.0,20.8
2023/06/28 17:50:00,162.0,21.1
2023/06/28 18:00:00,162.0,20.8
2023/06/28 18:10:00,162.0,20.9
2023/06/28 18:20:00,162.0,20.7
2023/06/28 18:30:00,162.0,20.8
2023/06/28 18:40:00,162.0,20.7
2023/06/28 18:50:00,162.0,20.7
2023/06/28 19:00:00,162.0,20.8
2023/06/28 19:10:00,162.0,20.8
2023/06/28 19:20:00,162.0,20.8
2023/06/28 19:30:00,162.0,20.6
2023/06/28 19:40:00,162.0,20.8
2023/06/28 19:50:00,162.0,20.5
2023/06/28 20:00:00,162.0,20.5
2023/06/28 20:10:00,162.0,20.6
2023/06/28 20:20:00,162.0,20.6
2023/06/28 20:30:00,162.0,20.8
2023/06/28 20:40:00,162.0,20.6
2023/06/28 20:50:00,162.0,20.5
2023/06/28 21:00:00,162.0,20.4
2023/06/28 21:10:00,162.0,20.4
2023/06/28 21:20:00,162.0,20.7
2023/06/28 21:30:00,162.0,20.3
2023/06/28 21:40:00,162.0,20.5
2023/06/28 21:50:00,162.0,20.6
2023/06/28 22:00:00,162.0,20.2
2023/06/28 22:10:00,162.0,20.4
2023/06/28 22:20:00,162.0,20.5
2023/06/28 22:30:00,162.0,20.4
2023/06/28 22:40:00,162.0,20.4
2023/06/28 22:50:00,162.0,20.7
2023/06/28 23:00:00,162.0,20.7
2023/06/28 23:10:00,162.0,20.4
2023/06/28 23:20:00,162.0,20.8
2023/06/28 23:30:00,162.0,20.6
2023/06/28 23:40:00,162.0,20.6
2023/06/28 23:50:00,162.0,21.0
